Date String (YYYY-MM-DD hh:mm:ss) UTC,Instrument flags,Ambient pressure (hPa),Sample flow (lpm),Bypass flow (lpm),Sample temperature (°C),Ambient temperature (°C),ASC tube jacket temperature (°C),LED temperature (°C),Box temperature (°C),Sample RH (%),Span deviation,Mass concentration (μg/m³),Mass concentration (μg/m³),Mass concentration (μg/m³)
DateTimeUTC,F1_M11,P_M11,Q1_M11,Q2_M11,T1_M11,T2_M11,T3_M11,T4_M11,T5_M11,U1_M11,ZSPAN_M11,X0_M11,X2_M11,X1_M11
2022-04-16 07:00:00,,0827.7,4.99,0.00,26.2,25.2,00.0,35.0,28.0,08.7,0000.0,0018.21,0005.38,0003.65
2022-04-16 07:01:00,,0827.7,5.00,0.00,26.2,25.2,00.0,35.0,28.0,08.7,0000.0,0018.72,0005.45,0003.66
2022-04-16 07:02:00,,0827.8,5.00,0.00,26.2,25.2,00.0,35.0,28.0,08.7,0000.0,0019.06,0005.45,0003.67
2022-04-16 07:03:00,,0827.6,5.00,0.00,26.2,25.2,00.0,35.0,28.0,08.7,0000.0,0019.70,0005.53,0003.70
2022-04-16 07:04:00,,0827.7,5.00,0.00,26.1,25.2,00.0,35.0,28.0,08.7,0000.0,0021.32,0005.61,0003.70
2022-04-16 07:05:00,,0827.7,5.00,0.00,26.1,25.2,00.0,35.0,27.9,08.7,0000.0,0021.99,0005.61,0003.71
2022-04-16 07:06:00,,0827.7,5.01,0.00,26.1,25.2,00.0,35.0,27.9,08.7,0000.0,0022.36,0005.57,0003.71
2022-04-16 07:07:00,,0827.7,5.00,0.00,26.1,25.2,00.0,35.0,27.9,08.7,0000.0,0023.18,0005.60,0003.72
2022-04-16 07:08:00,,0827.7,5.00,0.00,26.1,25.1,00.0,35.0,27.9,08.7,0000.0,0022.70,0005.65,0003.72
2022-04-16 07:09:00,,0827.7,5.00,0.00,26.1,25.2,00.0,35.0,27.9,08.7,0000.0,0021.45,0005.58,0003.72
2022-04-16 07:10:00,,0827.7,5.00,0.00,26.1,25.2,00.0,35.0,27.9,08.7,0000.0,0021.37,0005.64,0003.73
2022-04-16 07:11:00,,0827.7,5.00,0.00,26.1,25.1,00.0,35.0,27.9,08.7,0000.0,0021.34,0005.70,0003.74
2022-04-16 07:12:00,,0827.7,5.00,0.00,26.1,25.1,00.0,35.0,27.9,08.7,0000.0,0022.68,0005.72,0003.74
2022-04-16 07:13:00,,0827.7,5.00,0.00,26.1,25.1,00.0,35.0,27.9,08.8,0000.0,0023.18,0005.77,0003.75
2022-04-16 07:14:00,,0827.7,5.02,0.00,26.1,25.1,00.0,35.0,27.9,08.7,0000.0,0022.63,0005.70,0003.73
2022-04-16 07:15:00,,0827.7,5.00,0.00,26.1,25.1,00.0,35.0,27.9,08.7,0000.0,0021.18,0005.64,0003.75
2022-04-16 07:16:00,,0827.7,4.99,0.00,26.1,25.1,00.0,35.0,27.9,08.7,0000.0,0020.61,0005.65,0003.76
2022-04-16 07:17:00,,0827.7,4.99,0.00,26.1,25.1,00.0,35.0,27.9,08.7,0000.0,0020.17,0005.70,0003.77
2022-04-16 07:18:00,,0827.7,5.01,0.00,26.1,25.1,00.0,35.0,27.9,08.7,0000.0,0019.83,0005.68,0003.78
2022-04-16 07:19:00,,0827.7,5.00,0.00,26.0,25.1,00.0,35.0,27.9,08.8,0000.0,0019.07,0005.58,0003.78
2022-04-16 07:20:00,,0827.6,5.00,0.00,26.0,25.1,00.0,34.9,27.8,08.8,0000.0,0019.11,0005.53,0003.78
2022-04-16 07:21:00,,0827.6,5.00,0.00,26.0,25.1,00.0,34.9,27.8,08.8,0000.0,0020.76,0005.51,0003.79
2022-04-16 07:22:00,,0827.6,5.00,0.00,26.0,25.0,00.0,34.9,27.8,08.8,0000.0,0021.45,0005.52,0003.79
2022-04-16 07:23:00,,0827.7,5.01,0.00,26.0,25.0,00.0,34.9,27.8,08.8,0000.0,0020.46,0005.47,0003.80
2022-04-16 07:24:00,,0827.6,5.00,0.00,26.0,25.0,00.0,34.9,27.8,08.8,0000.0,0019.93,0005.45,0003.79
2022-04-16 07:25:00,,0827.7,5.01,0.00,26.0,25.0,00.0,34.9,27.8,08.8,0000.0,0020.48,0005.51,0003.80
2022-04-16 07:26:00,,0827.6,5.00,0.00,26.0,25.0,00.0,34.9,27.8,08.8,0000.0,0020.89,0005.52,0003.80
2022-04-16 07:27:00,,0827.6,5.00,0.00,26.0,25.0,00.0,34.9,27.8,08.9,0000.0,0021.10,0005.58,0003.80
2022-04-16 07:28:00,,0827.7,5.00,0.00,26.0,25.0,00.0,34.9,27.8,08.9,0000.0,0021.43,0005.58,0003.81
2022-04-16 07:29:00,,0827.6,4.99,0.00,26.0,25.0,00.0,34.9,27.8,08.9,0000.0,0021.10,0005.63,0003.82
2022-04-16 07:30:00,,0827.5,5.00,0.00,26.0,25.0,00.0,34.9,27.8,08.9,0000.0,0021.83,0005.71,0003.83
2022-04-16 07:31:00,,0827.5,5.00,0.00,25.9,25.0,00.0,34.9,27.8,08.9,0000.0,0022.65,0005.78,0003.83
2022-04-16 07:32:00,,0827.5,5.00,0.00,25.9,25.0,00.0,34.9,27.7,08.9,0000.0,0021.87,0005.74,0003.83
2022-04-16 07:33:00,,0827.5,5.00,0.00,25.9,24.9,00.0,34.9,27.7,08.9,0000.0,0021.83,0005.75,0003.83
2022-04-16 07:34:00,,0827.5,5.01,0.00,25.9,24.9,00.0,34.9,27.7,08.9,0000.0,0022.83,0005.79,0003.84
2022-04-16 07:35:00,,0827.5,5.00,0.00,25.9,24.9,00.0,34.9,27.7,08.9,0000.0,0024.25,0005.84,0003.85
2022-04-16 07:36:00,,0827.4,5.00,0.00,25.9,24.9,00.0,34.8,27.7,08.9,0000.0,0025.49,0005.87,0003.86
2022-04-16 07:37:00,,0827.4,5.00,0.00,25.9,24.9,00.0,34.8,27.7,08.9,0000.0,0025.05,0005.95,0003.86
2022-04-16 07:38:00,,0827.4,5.00,0.00,25.9,24.9,00.0,34.8,27.7,08.9,0000.0,0024.80,0005.95,0003.86
2022-04-16 07:39:00,,0827.4,5.00,0.00,25.9,24.9,00.0,34.8,27.7,08.9,0000.0,0025.64,0005.97,0003.85
2022-04-16 07:40:00,,0827.4,5.00,0.00,25.9,24.9,00.0,34.8,27.7,08.9,0000.0,0024.73,0005.99,0003.84
2022-04-16 07:41:00,,0827.4,5.00,0.00,25.9,24.9,00.0,34.8,27.6,08.9,0000.0,0024.82,0006.00,0003.83
2022-04-16 07:42:00,,0827.4,5.00,0.00,25.9,24.9,00.0,34.8,27.6,08.9,0000.0,0024.87,0005.96,0003.84
2022-04-16 07:43:00,,0827.4,5.01,0.00,25.8,24.9,00.0,34.8,27.6,08.9,0000.0,0025.32,0006.01,0003.84
2022-04-16 07:44:00,,0827.4,4.99,0.00,25.8,24.9,00.0,34.8,27.6,08.9,0000.0,0025.51,0006.03,0003.84
2022-04-16 07:45:00,,0827.4,5.00,0.00,25.8,24.9,00.0,34.8,27.6,08.9,0000.0,0025.12,0005.99,0003.83
2022-04-16 07:46:00,,0827.4,5.00,0.00,25.8,24.8,00.0,34.8,27.6,08.9,0000.0,0023.61,0005.99,0003.81
2022-04-16 07:47:00,,0827.4,5.01,0.00,25.8,24.8,00.0,34.8,27.6,08.9,0000.0,0023.80,0006.02,0003.81
2022-04-16 07:48:00,,0827.4,5.00,0.00,25.8,24.8,00.0,34.8,27.6,08.9,0000.0,0024.10,0005.98,0003.81
2022-04-16 07:49:00,,0827.4,5.00,0.00,25.8,24.8,00.0,34.8,27.6,08.9,0000.0,0024.89,0005.94,0003.79
2022-04-16 07:50:00,,0827.4,5.00,0.00,25.8,24.8,00.0,34.8,27.6,08.9,0000.0,0023.85,0005.92,0003.78
2022-04-16 07:51:00,,0827.3,4.98,0.00,25.8,24.8,00.0,34.7,27.6,08.9,0000.0,0023.75,0005.92,0003.78
2022-04-16 07:52:00,,0827.4,5.00,0.00,25.8,24.8,00.0,34.7,27.6,08.8,0000.0,0024.09,0005.90,0003.78
2022-04-16 07:53:00,,0827.4,5.00,0.00,25.8,24.8,00.0,34.7,27.6,08.8,0000.0,0024.29,0005.96,0003.78
2022-04-16 07:54:00,,0827.4,5.00,0.00,25.7,24.8,00.0,34.7,27.6,08.8,0000.0,0024.27,0005.94,0003.78
2022-04-16 07:55:00,,0827.4,5.00,0.00,25.7,24.8,00.0,34.7,27.6,08.8,0000.0,0023.72,0005.91,0003.77
2022-04-16 07:56:00,,0827.4,5.00,0.00,25.7,24.8,00.0,34.7,27.5,08.8,0000.0,0023.94,0005.86,0003.76
2022-04-16 07:57:00,,0827.4,5.00,0.00,25.7,24.8,00.0,34.7,27.6,08.8,0000.0,0024.12,0005.88,0003.75
2022-04-16 07:58:00,,0827.4,5.00,0.00,25.7,24.8,00.0,34.7,27.6,08.8,0000.0,0023.62,0005.83,0003.74
2022-04-16 07:59:00,,0827.4,4.99,0.00,25.7,24.8,00.0,34.7,27.6,08.9,0000.0,0023.06,0005.86,0003.74
